Waarnemingen

Advertentie
Mijn weer
Oostende Airport, België (6407): temperatuur & dauwpunt: 18.09.2020 20:00:00 - 24.09.2020 20:00:00 (CEST)Oostende Airport, België (6407): windsnelheid & windstoten: 18.09.2020 20:00:00 - 24.09.2020 20:00:00 (CEST)Oostende Airport, België (6407): windrichting: 18.09.2020 20:00:00 - 24.09.2020 20:00:00 (CEST)Oostende Airport, België (6407): luchtdruk: 18.09.2020 20:00:00 - 24.09.2020 20:00:00 (CEST)Oostende Airport, België (6407): zicht: 18.09.2020 20:00:00 - 24.09.2020 20:00:00 (CEST)
Datum & Tijd tt [°C] td [°C] ff [km/u] ff [kn] fx [km/u] fx [kn] dd ppp [hPa] vv [km]
24.09.2020 20:00:00 13,7 10,2 15 8 - - ZZO 995,6 10
24.09.2020 19:00:00 13,0 10,8 11 6 14 8 ZO 996,4 10
24.09.2020 18:00:00 13,6 10,7 9 5 18 10 ZZW 998,1 10
24.09.2020 17:00:00 14,6 9,6 11 6 - - ZW 998,7 10
24.09.2020 16:00:00 15,4 9,8 15 8 29 16 Z 999,4 10
24.09.2020 15:00:00 13,8 8,2 22 12 50 27 ZW 1000,2 10
24.09.2020 14:00:00 13,3 8,9 28 15 - - ZW 1000,8 10
24.09.2020 13:00:00 14,6 9,1 39 21 58 31 ZZW 1000,7 10
24.09.2020 12:00:00 14,0 9,1 31 17 58 31 ZZW 1000,7 10
24.09.2020 11:00:00 12,7 8,1 28 15 - - Z 1001,0 10
24.09.2020 10:00:00 11,9 8,3 24 13 43 23 Z 1001,3 10
24.09.2020 09:00:00 10,8 8,5 24 13 40 21 Z 1001,7 10
24.09.2020 08:00:00 10,1 8,9 18 10 - - Z 1001,8 10
24.09.2020 07:00:00 8,9 7,0 13 7 22 12 Z 1001,9 10
24.09.2020 06:00:00 9,7 6,7 15 8 29 16 ZW 1002,1 10
24.09.2020 05:00:00 10,5 6,8 22 12 - - ZW 1002,1 10
24.09.2020 04:00:00 12,9 6,6 41 22 61 33 W 1001,3 10
24.09.2020 03:00:00 13,3 7,5 42 23 65 35 WZW 1000,5 10
24.09.2020 02:00:00 13,6 6,9 44 24 - - WZW 999,8 10
24.09.2020 01:00:00 13,0 10,1 31 17 47 25 ZW 999,4 10
24.09.2020 00:00:00 14,1 11,9 26 14 47 25 ZW 999,0 10
23.09.2020 23:00:00 15,3 14,4 18 10 - - ZW 999,1 9
23.09.2020 22:00:00 14,4 13,1 24 13 36 19 ZZW 999,3 10
23.09.2020 21:00:00 14,9 14,0 15 8 29 16 ZW 999,7 5
23.09.2020 20:00:00 15,7 14,7 15 8 - - ZZW 1000,1 8
23.09.2020 19:00:00 18,1 14,3 9 5 18 10 Z 1000,1 10
23.09.2020 18:00:00 18,4 13,7 11 6 29 16 Z 1001,3 10
23.09.2020 17:00:00 18,9 14,8 16 9 - - ZW 1002,1 10
23.09.2020 16:00:00 18,3 15,5 21 11 29 16 ZW 1002,8 10
23.09.2020 15:00:00 18,3 16,4 16 9 25 14 ZZW 1003,3 10
23.09.2020 14:00:00 16,2 14,9 16 9 - - ZW 1003,7 10
23.09.2020 13:00:00 17,3 15,0 24 13 40 21 ZW 1003,9 7
23.09.2020 12:00:00 18,6 14,1 28 15 40 21 ZZW 1004,2 10
23.09.2020 11:00:00 17,6 13,9 24 13 - - ZZW 1004,3 10
23.09.2020 10:00:00 16,8 13,9 18 10 32 18 Z 1004,2 10
23.09.2020 09:00:00 15,7 14,0 13 7 22 12 Z 1004,2 7
23.09.2020 08:00:00 15,1 13,8 11 6 - - Z 1004,5 5
23.09.2020 07:00:00 14,8 13,8 11 6 14 8 Z 1004,9 6
23.09.2020 06:00:00 14,2 13,5 8 4 22 12 Z 1005,3 5
23.09.2020 05:00:00 13,9 13,1 15 8 - - ZZW 1005,9 5
23.09.2020 04:00:00 14,0 13,1 16 9 22 12 ZZW 1006,2 5
23.09.2020 03:00:00 13,8 12,8 14 8 18 10 ZZW 1006,3 5
23.09.2020 02:00:00 13,0 12,1 9 5 - - Z 1006,6 6
23.09.2020 01:00:00 13,0 12,2 8 4 14 8 Z 1007,0 7
23.09.2020 00:00:00 13,2 12,1 11 6 14 8 ZZW 1007,7 8
22.09.2020 23:00:00 14,7 12,7 13 7 - - WZW 1008,0 10
22.09.2020 22:00:00 13,1 11,6 8 4 11 6 ZW 1007,9 10
22.09.2020 21:00:00 15,0 12,7 8 4 11 6 WZW 1007,9 10
22.09.2020 20:00:00 16,0 13,9 8 4 - - W 1008,1 10
22.09.2020 19:00:00 18,3 13,3 9 5 14 8 W 1008,2 10
22.09.2020 18:00:00 19,1 12,2 11 6 14 8 NW 1008,6 10
22.09.2020 17:00:00 20,2 11,2 9 5 - - NNW 1009,4 10
22.09.2020 16:00:00 20,4 11,6 9 5 14 8 NNW 1010,1 10
22.09.2020 15:00:00 20,7 11,7 11 6 14 8 NW 1010,6 10
22.09.2020 14:00:00 21,8 9,7 8 4 - - ZZW 1011,2 10
22.09.2020 13:00:00 19,1 12,4 8 4 11 6 Z 1011,9 10
22.09.2020 12:00:00 16,8 14,5 8 4 11 6 ZZW 1012,5 6
22.09.2020 11:00:00 13,8 12,5 5 3 - - ZZW 1012,8 4,5
22.09.2020 10:00:00 10,4 10,2 4 2 7 4 - 1012,8 0,6
22.09.2020 09:00:00 8,4 8,4 5 3 7 4 Z 1012,8 0,1
22.09.2020 08:00:00 7,4 7,4 4 2 - - ZZO 1013,0 0,1
22.09.2020 07:00:00 7,1 7,1 4 2 7 4 ZZW 1013,1 0,1
22.09.2020 06:00:00 6,7 6,7 2 1 4 2 - 1013,2 0,1
22.09.2020 05:00:00 6,4 6,4 2 1 - - - 1013,7 0,1
22.09.2020 04:00:00 6,8 6,7 4 2 4 2 ZZO 1014,0 0,2
22.09.2020 03:00:00 6,9 6,9 2 1 7 4 ZZW 1014,5 1,5
22.09.2020 02:00:00 8,8 8,8 5 3 - - NNW 1015,0 7
22.09.2020 01:00:00 9,5 9,4 4 2 7 4 NW 1015,4 7
22.09.2020 00:00:00 10,4 10,0 4 2 7 4 NNW 1015,6 10
21.09.2020 23:00:00 11,9 10,7 4 2 - - NNW 1015,7 10
21.09.2020 22:00:00 13,5 12,3 5 3 7 4 N 1015,8 10
21.09.2020 21:00:00 15,5 13,4 5 3 11 6 N 1015,8 10
21.09.2020 20:00:00 16,4 14,1 9 5 - - N 1015,7 10
21.09.2020 19:00:00 17,6 14,3 13 7 18 10 NNO 1016,1 10
21.09.2020 18:00:00 18,6 14,0 13 7 22 12 N 1016,2 10
21.09.2020 17:00:00 18,9 14,2 16 9 - - N 1016,6 10
21.09.2020 16:00:00 19,2 14,0 15 8 22 12 N 1016,8 10
21.09.2020 15:00:00 19,4 14,2 16 9 25 14 N 1017,3 10
21.09.2020 14:00:00 19,4 14,2 13 7 - - N 1017,4 10
21.09.2020 13:00:00 19,0 13,9 13 7 22 12 N 1017,5 10
21.09.2020 12:00:00 18,6 14,0 13 7 25 14 NNO 1017,9 10
21.09.2020 11:00:00 17,5 12,4 9 5 - - N 1017,9 10
21.09.2020 10:00:00 15,2 12,4 2 1 7 4 - 1017,7 8
21.09.2020 09:00:00 10,4 9,3 2 1 7 4 - 1017,6 9
21.09.2020 08:00:00 8,9 8,6 4 2 - - O 1017,4 9
21.09.2020 07:00:00 11,1 9,0 5 3 18 10 NO 1017,3 10
21.09.2020 06:00:00 10,0 8,1 8 4 11 6 ONO 1017,3 10
21.09.2020 05:00:00 12,1 9,2 8 4 - - ONO 1017,3 10
21.09.2020 04:00:00 13,5 9,6 9 5 14 8 NO 1017,5 10
21.09.2020 03:00:00 13,1 10,3 11 6 18 10 NO 1017,9 10
21.09.2020 02:00:00 12,9 8,9 11 6 - - NO 1018,1 10
21.09.2020 01:00:00 14,0 9,1 15 8 18 10 ONO 1018,0 10
21.09.2020 00:00:00 14,3 9,4 13 7 18 10 NO 1018,4 10
20.09.2020 23:00:00 15,4 10,7 13 7 - - NO 1018,4 10
20.09.2020 22:00:00 16,5 13,5 15 8 29 16 NO 1018,5 10
20.09.2020 21:00:00 16,9 13,4 16 9 32 18 NO 1018,2 10
20.09.2020 20:00:00 17,4 12,8 21 11 - - NNO 1017,9 10
20.09.2020 19:00:00 18,0 12,0 22 12 36 19 NNO 1017,7 10
20.09.2020 18:00:00 18,7 13,0 24 13 36 19 NNO 1017,6 10
20.09.2020 17:00:00 18,6 13,1 26 14 - - NNO 1017,6 10
20.09.2020 16:00:00 19,8 11,5 26 14 32 18 NNO 1017,5 10
20.09.2020 15:00:00 20,5 12,3 21 11 29 16 NNO 1017,5 10
20.09.2020 14:00:00 19,6 11,9 18 10 - - NO 1017,9 10
20.09.2020 13:00:00 19,9 11,5 16 9 29 16 NO 1017,9 10
20.09.2020 12:00:00 18,4 11,1 22 12 29 16 NO 1018,0 10
20.09.2020 11:00:00 18,4 11,1 13 7 - - NO 1017,8 10
20.09.2020 10:00:00 17,4 11,1 13 7 22 12 ONO 1017,3 10
20.09.2020 09:00:00 16,3 11,8 11 6 14 8 NO 1017,1 10
20.09.2020 08:00:00 14,4 10,2 11 6 - - ONO 1016,7 10
20.09.2020 07:00:00 15,5 9,9 15 8 22 12 NO 1016,4 10
20.09.2020 06:00:00 16,0 9,6 15 8 22 12 ONO 1016,2 10
20.09.2020 05:00:00 16,3 9,5 15 8 - - ONO 1016,3 10
20.09.2020 04:00:00 17,2 9,4 18 10 29 16 ONO 1016,3 10
20.09.2020 03:00:00 17,6 10,3 18 10 25 14 ONO 1016,3 10
20.09.2020 02:00:00 17,6 10,7 15 8 - - ONO 1016,3 10
20.09.2020 01:00:00 17,6 11,6 15 8 22 12 ONO 1016,3 10
20.09.2020 00:00:00 17,9 11,7 15 8 22 12 ONO 1016,4 10
19.09.2020 23:00:00 18,0 13,2 13 7 - - NO 1016,5 10
19.09.2020 22:00:00 18,4 14,2 13 7 22 12 NO 1016,3 10
19.09.2020 21:00:00 18,5 14,6 15 8 22 12 NO 1015,8 10
19.09.2020 20:00:00 19,2 14,1 15 8 - - NO 1015,5 10
19.09.2020 19:00:00 20,0 14,4 21 11 29 16 NO 1015,1 10
19.09.2020 18:00:00 19,9 14,0 21 11 25 14 NNO 1015,3 10
19.09.2020 17:00:00 21,7 13,2 21 11 - - NNO 1015,8 10
19.09.2020 16:00:00 22,9 13,3 21 11 25 14 NNO 1016,1 10
19.09.2020 15:00:00 24,2 11,7 11 6 25 14 O 1016,6 10
19.09.2020 14:00:00 22,4 10,9 14 8 - - ONO 1016,8 25
19.09.2020 13:00:00 21,2 10,4 18 10 25 14 NO 1016,9 10
19.09.2020 12:00:00 19,3 9,3 16 9 22 12 ONO 1017,2 10
19.09.2020 11:00:00 17,5 9,0 16 9 - - O 1017,7 10
19.09.2020 10:00:00 15,3 8,5 18 10 25 14 ONO 1017,3 10
19.09.2020 09:00:00 13,2 8,3 16 9 25 14 O 1017,5 10
19.09.2020 08:00:00 11,9 8,3 16 9 - - O 1017,3 10
19.09.2020 07:00:00 11,8 8,1 15 8 22 12 O 1017,4 10
19.09.2020 06:00:00 12,1 8,1 16 9 29 16 O 1017,3 10
19.09.2020 05:00:00 12,8 8,2 21 11 - - O 1017,5 10
19.09.2020 04:00:00 13,1 7,9 18 10 25 14 ONO 1018,2 25
19.09.2020 03:00:00 14,0 8,2 21 11 32 18 ONO 1018,5 10
19.09.2020 02:00:00 14,7 8,3 22 12 - - O 1018,9 10
19.09.2020 01:00:00 15,3 8,5 22 12 32 18 ONO 1019,2 10
19.09.2020 00:00:00 15,8 8,9 22 12 36 19 ONO 1019,5 10
18.09.2020 23:00:00 17,1 9,3 24 13 - - ONO 1019,7 10
18.09.2020 22:00:00 17,7 9,9 22 12 32 18 ONO 1020,0 10
18.09.2020 21:00:00 18,6 9,9 22 12 32 18 ONO 1019,5 10
18.09.2020 20:00:00 19,7 10,5 22 12 - - ONO 1019,7 10

tt = temperatuur
td = dauwpunt
ff = windsnelheid
fx = windstoten
dd = windrichting
ppp = luchtdruk
vv = zicht

Weerstations in de omgeving